Content
SEND FEEDBACK

Daily
Averages
Monthly
Summary
France

RENNES, FRANCE


Home > Europe > France
Elevation: 121 feet     Latitude: 48 04N     Longitude: 001 43W

WEATHER
 
SELECT A DAY
Number of Records: 243,879;   Date Range: 7/1/96 - 10/24/14
 
SHARE

PRINT THIS DATA

[ ← Previous Day ]
WEATHER ALMANAC - SEPTEMBER 2, 2013
[ Next Day → ]
[ °C ]   °F
Weather ElementAverageHighLow
Temperature60.1 °F77 °F (4:30 pm)44.6 °F (6:30 am)
Dewpoint47.7 °F55.4 °F (10:30 am)41 °F (8:00 pm)
Humidity69.1 %100 % (3:30 am)25 % (8:00 pm)
Barometer30.40 in30.45 in (2:00 am)30.36 in (4:30 pm)
Wind Speed5.6 mph12.7 mph (5:30 pm)
Weather ElementAverage
Visibility7.2 mi
Wind DirectionW (266.5 °)

Weather ElementTotal
Precipitation---
Heating Degree Days4.2 (Base 65)
Growing Degree Days10.8 (Base 50)
Averaged from 51 records on September 2, 2013
WEATHER CONDITIONS BREAKOUT
WIND DIRECTION BREAKOUT
WEATHER BY HOUR - SEPTEMBER 2, 2013
[ °C ]   °F
Local TimeTemperatureDewpointHumidityBarometerVisibilityWind DirectionWind SpeedGust SpeedPrecipitationEventsConditions
12:30 AM51.8 °F48.2 °F88 %30.42 in6.2 miWNW (300°)3.5 mph
1:00 AM51.8 °F48.2 °F88 %30.42 in6.2 miWNW (290°)4.6 mph
1:30 AM50.0 °F48.2 °F94 %30.42 in6.2 miWNW (290°)4.6 mph
2:00 AM49.0 °F47.0 °F92 %30.45 in34.0 miNW (310°)4.6 mphClear
2:00 AM50.0 °F48.2 °F94 %30.42 in6.2 miWNW (300°)4.6 mph
2:30 AM50.0 °F48.2 °F94 %30.42 in6.2 miWNW (290°)2.3 mph
3:00 AM48.2 °F46.4 °F93 %30.42 in6.2 miWest (260°)2.3 mph
3:30 AM46.4 °F46.4 °F100 %30.42 in0.9 miWest (270°)2.3 mphMist
4:00 AM48.2 °F46.4 °F93 %30.42 inWest (270°)3.5 mphMist
4:30 AM46.4 °F46.4 °F100 %30.42 inWNW (300°)4.6 mphMist
5:00 AM48.2 °F46.4 °F93 %30.42 in5.0 miWest (280°)3.5 mph
5:30 AM46.4 °F46.4 °F100 %30.42 in0.2 miNW (310°)2.3 mphFogFog
6:00 AM46.4 °F46.4 °F100 %30.42 in0.4 miWest (280°)2.3 mphFogFog
6:30 AM44.6 °F44.6 °F100 %30.42 in2.2 miWest (270°)2.3 mphMist
7:00 AM44.6 °F44.6 °F100 %30.42 in0.2 miWNW (300°)2.3 mphFogFog
7:30 AM44.6 °F44.6 °F100 %30.42 in0.4 miWNW (300°)2.3 mphFogFog
8:00 AM46.0 °F46.0 °F98 %30.43 in0.0 miWest (280°)1.2 mphFogPartial Fog
8:00 AM46.4 °F46.4 °F100 %30.42 in4.3 miWest (280°)1.2 mph
8:30 AM48.2 °F48.2 °F100 %30.42 in6.2 miCalm
9:00 AM50.0 °F50.0 °F100 %30.42 in6.2 miVariable1.2 mph
9:30 AM55.4 °F53.6 °F94 %30.42 in6.2 miCalm
10:00 AM57.2 °F53.6 °F88 %30.42 in6.2 miVariable1.2 mph
10:30 AM60.8 °F55.4 °F82 %30.42 in6.2 miVariable3.5 mph
11:00 AM64.4 °F55.4 °F73 %30.42 in6.2 miNorth (10°)5.8 mph
11:30 AM66.2 °F55.4 °F68 %30.45 in6.2 miNNW (340°)5.8 mph
12:00 PM68.0 °F53.6 °F60 %30.42 in6.2 miNorth (10°)4.6 mph
12:30 PM69.8 °F51.8 °F53 %30.42 in6.2 miNorth (350°)5.8 mph
1:00 PM69.8 °F50.0 °F49 %30.42 in6.2 miNNW (340°)6.9 mph
1:30 PM71.6 °F46.4 °F41 %30.42 in6.2 miNNW (340°)8.1 mph
2:00 PM73.0 °F49.0 °F32 %30.41 in37.0 miNorth (10°)8.1 mphClear
2:00 PM73.4 °F50.0 °F44 %30.39 in6.2 miNorth (360°)8.1 mph
2:30 PM73.4 °F50.0 °F44 %30.39 in6.2 miNNW (330°)8.1 mph
3:00 PM75.2 °F50.0 °F41 %30.39 in6.2 miNorth (360°)9.2 mph
3:30 PM75.2 °F48.2 °F38 %30.39 in6.2 miNorth (350°)6.9 mph
4:00 PM75.2 °F46.4 °F36 %30.39 in6.2 miNorth (350°)9.2 mph
4:30 PM77.0 °F46.4 °F34 %30.36 in6.2 miNorth (350°)11.5 mph
5:00 PM77.0 °F44.6 °F32 %30.36 in6.2 miNorth (350°)10.4 mph
5:30 PM75.2 °F46.4 °F36 %30.36 in6.2 miNNW (340°)12.7 mph
6:00 PM75.2 °F44.6 °F34 %30.36 in6.2 miNNW (340°)11.5 mph
6:30 PM75.2 °F44.6 °F34 %30.36 in6.2 miNNW (340°)11.5 mph
7:00 PM73.4 °F42.8 °F33 %30.36 in6.2 miNorth (360°)11.5 mph
7:30 PM71.6 °F44.6 °F38 %30.36 in6.2 miNorth (350°)10.4 mph
8:00 PM69.0 °F41.0 °F25 %30.38 in37.0 miNorth (350°)11.5 mphClear
8:00 PM68.0 °F41.0 °F37 %30.36 in6.2 miNorth (350°)11.5 mph
8:30 PM66.2 °F41.0 °F40 %30.36 in6.2 miNorth (350°)9.2 mph
9:00 PM62.6 °F44.6 °F52 %30.36 in6.2 miNorth (350°)5.8 mph
9:30 PM60.8 °F44.6 °F55 %30.39 in6.2 miNorth (360°)4.6 mph
10:00 PM59.0 °F46.4 °F63 %30.39 in6.2 miNorth (350°)4.6 mph
10:30 PM59.0 °F50.0 °F72 %30.39 in6.2 miNNE (20°)3.5 mph
11:00 PM57.2 °F51.8 °F82 %30.39 in6.2 miNorth (360°)3.5 mph
11:30 PM55.4 °F51.8 °F88 %30.39 in6.2 miNNW (340°)4.6 mph
Hourly data recorded from LFRN, located miles away from Rennes, France







STORIES FROM OUR PARTNERS